Location: Lalanga
(4.5882°N, 32.9072°E)
Time: 23:24:33
(UTC+00:00)

Daily predictions for brighter satellites

Satellite Brightness Start Highest point End
(mag) Time Altitude Azimuth Time Altitude Azimuth Time Altitude Azimuth
Ariane H10+ 2.9 16:09:29 10° W 16:13:16 73° N 16:33:59 10° E
Intelsat 5-2 Rocket 4.3 16:14:47 10° WNW 16:16:49 19° N 16:19:54 10° NE
Cosmos 1980 3.9 16:12:37 10° N 16:18:03 48° ENE 16:23:28 10° SSE
ADEOS Rocket 3.7 16:10:53 10° NNE 16:18:12 63° ESE 16:25:52 10° S
Envisat 3.5 16:15:14 10° S 16:20:16 66° WSW 16:25:17 10° NNW
Cosmos 2219 Rocket 3.7 16:16:52 10° NW 16:22:10 43° WSW 16:27:26 10° S
Centaur D-1AR AC-36 3.2 16:21:07 10° NW 16:24:44 20° N 16:27:18 10° ENE
SL-4 R/B 4.5 16:23:02 10° SSE 16:24:44 12° SE 16:26:26 10° ESE
Meteor 2-10 Rocket 3.7 16:20:30 10° NNE 16:25:19 46° E 16:30:05 10° SSE
FALCON 9 R/B 4.4 16:22:48 10° SSE 16:25:35 12° SE 16:30:00 10° ESE
NOSS 3-2 (C) 3.3 16:29:57 10° S 16:35:18 53° ESE 16:40:42 10° NE
Cosmos 1371 Rocket 4.0 16:30:20 10° S 16:35:26 63° ESE 16:40:31 10° NNE
CSL-04 Debris 4.4 16:30:24 10° SSE 16:35:32 46° ENE 16:40:39 10° N
YAOGAN 6 4.2 16:33:00 10° S 16:36:29 40° W 16:39:58 10° NNW
ATLAS 3B R/B 3.7 16:31:10 10° SSE 16:36:50 27° ESE 16:41:24 13° ENE
Cosmos 1892 4.3 16:37:18 10° SE 16:39:51 17° E 16:40:47 16° ENE
Cosmos 1939 Rocket 3.0 16:40:12 10° SSE 16:43:54 47° ENE 16:47:38 10° N
Cosmos 2058 3.3 16:41:50 10° SSE 16:45:41 39° E 16:49:31 10° NNE
Sakura Rocket 3.3 16:42:34 10° SW 16:46:09 40° SSE 16:48:15 20° E
GPS 2-12 Rocket1 3.8 16:46:10 10° NW 16:50:38 37° NNE 16:53:10 22° ENE
Cosmos 1842 Rocket 4.2 16:48:32 10° NNE 16:52:33 33° E 16:56:34 10° SSE
GPS 2-14 Rocket1 4.4 16:50:01 10° WNW 16:53:02 21° NNW 16:55:07 14° NNE
OAO 3 Copernicus 4.4 16:48:31 10° SW 16:53:32 65° SE 16:56:37 23° ENE
NOSS 3-2 (A) 4.1 16:49:29 10° SW 16:54:42 47° WNW 17:00:03 10° N
CENTAUR R/B 2.1 16:52:01 10° SSW 16:57:11 61° ESE 17:01:20 18° NE
CSL-04 Rocket 3.6 16:53:14 10° SSE 16:58:39 85° ENE 17:04:07 10° N
ARIANE 5 R/B 4.1 16:40:24 10° W 16:58:55 54° S 17:01:37 18° ESE
ASC 2 Rocket 3.1 16:54:49 10° WSW 16:59:24 62° NNW 17:01:26 27° NE
Cosmos 1624 Rocket 4.3 16:58:07 10° SSW 17:03:26 72° WNW 17:08:42 10° N
Centaur Rocket 3.4 17:00:28 10° WSW 17:03:28 60° SSE 17:07:03 25° E
Ariane Rocket 3.5 16:59:13 10° SE 17:03:45 33° ENE 17:08:15 10° NNE
CZ-2D R/B 3.5 17:02:28 10° S 17:06:15 70° W 17:10:01 10° NNW
Ariane H10 4.1 17:05:11 10° WSW 17:08:28 42° S 17:17:09 15° ESE
ARIANE 5 R/B 2.7 17:06:38 10° WSW 17:08:58 53° SSE 17:11:35 25° E
Star 63D 3.2 17:06:11 10° WSW 17:09:23 53° NNW 17:09:36 50° N
CZ-2C R/B 3.5 17:07:47 15° NNE 17:11:25 78° ESE 17:15:57 10° S
USA 234 3.5 17:06:51 10° ESE 17:12:56 42° NE 17:18:59 10° NNW
Intelsat 5-3 Rocket 4.0 17:02:58 10° SW 17:14:45 52° SSE 17:17:13 30° ESE
In-Cosmos 22 Rocket 4.3 17:12:38 10° S 17:18:28 85° W 17:24:12 10° N
Cosmos 2056 Rocket 4.4 17:13:49 10° SSW 17:18:45 48° WNW 17:23:45 10° N
Cosmos 2237 Rocket 3.6 17:13:40 10° NW 17:18:50 39° WSW 17:24:03 10° S
CZ-4 R/B 4.0 17:16:17 10° SSW 17:19:19 21° W 17:22:22 10° NW
BLOCK DM-SL R/B 4.3 17:11:50 10° W 17:25:04 60° S 17:27:42 30° ESE
CZ-4C R/B 4.5 17:26:30 10° NW 17:34:08 39° WSW 17:41:43 10° S
Cosmos 2221 2.5 17:36:59 55° NNW 17:37:52 78° W 17:42:12 10° S
SL-16 R/B 2.1 17:37:11 10° NNW 17:42:49 83° WSW 17:48:27 10° SSE
ASTRO E2 4.2 17:39:23 10° W 17:42:57 32° SSW 17:43:37 30° SSW
Cosmos 2151 3.6 17:45:32 10° SSW 17:48:54 51° SW 17:48:54 51° SW
ARIANE 5 R/B 3.6 17:45:59 10° W 17:50:05 36° WSW 17:50:05 36° WSW
IRS-1A Rocket 4.5 17:47:24 10° S 17:53:16 74° WSW 17:59:02 10° NNW
Cosmos 1605 Rocket 4.3 17:51:22 10° SSW 17:57:31 65° W 18:00:25 33° NNW
Cosmos 1844 Rocket 2.8 17:54:11 10° SSW 17:58:50 64° SSW 17:58:50 64° SSW
MOS 1 4.3 17:54:46 10° S 18:00:04 76° SSW 18:00:04 76° SSW
CZ-2C R/B 3.2 18:02:13 51° S 18:02:13 51° S 18:06:18 10° S
Cosmos 1452 Rocket 3.9 17:56:04 10° SSW 18:01:15 60° WNW 18:01:15 60° WNW
CZ-3A R/B 4.2 17:44:38 10° SW 18:02:40 29° S 18:05:12 25° SSE
USA 215 3.2 18:03:17 66° SE 18:03:17 66° SE 18:09:29 10° SSW
SL-4 R/B 3.4 17:59:36 10° SW 18:03:13 43° W 18:03:13 43° W
Ariane H10+ 2.8 18:13:29 10° WSW 18:16:44 60° SW 18:16:44 60° SW
ATLAS 3B R/B 4.0 18:21:14 10° SW 18:27:13 32° WNW 18:28:43 29° NW
ATLAS 2AS CENTAUR RB 4.4 19:04:43 10° WSW 19:28:43 48° WSW 19:28:43 48° WSW
